Marshfield, MA

10:35 PM EDT on October 22, 2019 (GMT -0400)
Marshfield

Weather History for KGHG - September, 2019

Change the Weather History Date:

Wednesday, September 18, 2019

  Actual Average (KPYM) Record (KPYM)
Temperature  
Mean Temperature 60 °F -  
Max Temperature 62 °F 71 °F 87 °F (1948)
Min Temperature 57 °F 50 °F 37 °F (1984)
Degree Days  
Heating Degree Days 6    
Growing Degree Days 10 (Base 50)    
Moisture  
Dew Point 47 °F    
Average Humidity 62    
Maximum Humidity 72    
Minimum Humidity 52    
Precipitation  
Precipitation 0.00 in - - ()
Sea Level Pressure  
Sea Level Pressure 30.26 in    
Wind  
Wind Speed 10 mph (NE)    
Max Wind Speed 14 mph    
Max Gust Speed 23 mph    
Visibility 10 miles    
Events      
Averages and records for this station are not official NWS values.
T = Trace of Precipitation, MM = Missing Value Source: NWS Daily Summary

Daily Weather History Graph

Daily Weather History Graph

Search for Another Location

Airport or City:

Astronomy

Sep. 18, 2019 Rise Set
Actual Time 6:25 AM EDT 6:47 PM EDT
Civil Twilight 5:57 AM EDT 7:15 PM EDT
Nautical Twilight 5:24 AM EDT 7:48 PM EDT
Astronomical Twilight 4:50 AM EDT 8:21 PM EDT
Moon 9:15 PM EDT (9/18) 10:29 AM EDT (9/18)
Length of Visible Light 13h 17m
Length of Day
12h 21m
Waning Gibbous, 82% of the Moon is Illuminated
Sep 18
Waning Gibbous
Sep 21
Last Quarter
Sep 28
New
Oct 5
First Quarter
Oct 13
Full

Hourly Weather History & Observations

Time (EDT) Temp. Dew Point Humidity Pressure Visibility Wind Dir Wind Speed Gust Speed Precip Events Conditions
12:15 AM 62.6 °F 50.0 °F 63% 30.18 in 10.0 mi NE 10.4 mph - N/A   Overcast
12:35 AM 62.6 °F 50.0 °F 63% 30.18 in 10.0 mi NE 10.4 mph - N/A   Overcast
12:55 AM 62.6 °F 50.0 °F 63% 30.18 in 10.0 mi NE 9.2 mph - N/A   Overcast
1:15 AM 62.6 °F 50.0 °F 63% 30.18 in 10.0 mi NE 11.5 mph 18.4 mph N/A   Overcast
1:35 AM 62.6 °F 51.8 °F 68% 30.18 in 10.0 mi NE 10.4 mph 16.1 mph N/A   Overcast
1:55 AM 62.6 °F 50.0 °F 63% 30.18 in 10.0 mi NE 10.4 mph 18.4 mph N/A   Overcast
2:15 AM 62.6 °F 50.0 °F 63% 30.18 in 10.0 mi NE 9.2 mph 18.4 mph N/A   Overcast
2:35 AM 62.6 °F 51.8 °F 68% 30.18 in 10.0 mi NE 8.1 mph 18.4 mph N/A   Mostly Cloudy
2:55 AM 60.8 °F 51.8 °F 72% 30.18 in 10.0 mi Variable 6.9 mph 16.1 mph N/A   Overcast
3:15 AM 60.8 °F 51.8 °F 72% 30.19 in 10.0 mi NNE 8.1 mph - N/A   Overcast
3:35 AM 60.8 °F 51.8 °F 72% 30.19 in 10.0 mi NE 9.2 mph - N/A   Mostly Cloudy
3:55 AM 60.8 °F 50.0 °F 68% 30.19 in 10.0 mi NE 9.2 mph 15.0 mph N/A   Overcast
4:15 AM 60.8 °F 50.0 °F 68% 30.20 in 10.0 mi NE 9.2 mph 17.3 mph N/A   Overcast
4:35 AM 60.8 °F 50.0 °F 68% 30.19 in 10.0 mi Variable 6.9 mph - N/A   Overcast
4:55 AM 60.8 °F 50.0 °F 68% 30.20 in 10.0 mi NNE 8.1 mph 17.3 mph N/A   Mostly Cloudy
5:15 AM 59.0 °F 48.2 °F 67% 30.20 in 10.0 mi Variable 6.9 mph 16.1 mph N/A   Overcast
5:35 AM 59.0 °F 46.4 °F 63% 30.20 in 10.0 mi NNE 9.2 mph 16.1 mph N/A   Overcast
5:55 AM 59.0 °F 46.4 °F 63% 30.21 in 10.0 mi NNE 8.1 mph 15.0 mph N/A   Scattered Clouds
6:15 AM 59.0 °F 44.6 °F 59% 30.21 in 10.0 mi NNE 8.1 mph 17.3 mph N/A   Mostly Cloudy
6:35 AM 59.0 °F 46.4 °F 63% 30.22 in 10.0 mi Variable 6.9 mph 13.8 mph N/A   Overcast
6:55 AM 59.0 °F 46.4 °F 63% 30.22 in 10.0 mi NNE 8.1 mph 17.3 mph N/A   Mostly Cloudy
7:15 AM 59.0 °F 46.4 °F 63% 30.23 in 10.0 mi NNE 9.2 mph - N/A   Mostly Cloudy
7:35 AM 59.0 °F 46.4 °F 63% 30.24 in 10.0 mi Variable 6.9 mph 17.3 mph N/A   Overcast
7:55 AM 59.0 °F 46.4 °F 63% 30.25 in 10.0 mi NNE 9.2 mph 18.4 mph N/A   Mostly Cloudy
8:15 AM 59.0 °F 46.4 °F 63% 30.25 in 10.0 mi NE 8.1 mph 17.3 mph N/A   Overcast
8:35 AM 59.0 °F 46.4 °F 63% 30.26 in 10.0 mi NE 9.2 mph 23.0 mph N/A   Overcast
8:55 AM 59.0 °F 46.4 °F 63% 30.26 in 10.0 mi NNE 12.7 mph 20.7 mph N/A   Overcast
9:15 AM 60.8 °F 46.4 °F 59% 30.27 in 10.0 mi NNE 9.2 mph 17.3 mph N/A   Mostly Cloudy
9:35 AM 60.8 °F 44.6 °F 55% 30.27 in 10.0 mi NNE 10.4 mph 18.4 mph N/A   Partly Cloudy
9:55 AM 60.8 °F 46.4 °F 59% 30.28 in 10.0 mi NNE 10.4 mph 18.4 mph N/A   Scattered Clouds
10:15 AM 62.6 °F 46.4 °F 55% 30.28 in 10.0 mi NE 10.4 mph 18.4 mph N/A   Scattered Clouds
10:35 AM 60.8 °F 46.4 °F 59% 30.27 in 10.0 mi NNE 11.5 mph 18.4 mph N/A   Scattered Clouds
10:55 AM 60.8 °F 48.2 °F 63% 30.27 in 10.0 mi NE 11.5 mph 17.3 mph N/A   Mostly Cloudy
11:15 AM 62.6 °F 48.2 °F 59% 30.28 in 10.0 mi North 10.4 mph 23.0 mph N/A   Mostly Cloudy
11:35 AM 60.8 °F 46.4 °F 59% 30.28 in 10.0 mi NNE 10.4 mph 18.4 mph N/A   Mostly Cloudy
11:55 AM 60.8 °F 46.4 °F 59% 30.28 in 10.0 mi NE 9.2 mph 18.4 mph N/A   Mostly Cloudy
12:15 PM 60.8 °F 46.4 °F 59% 30.28 in 10.0 mi NE 12.7 mph 20.7 mph N/A   Mostly Cloudy
12:35 PM 62.6 °F 46.4 °F 55% 30.28 in 10.0 mi NNE 9.2 mph 19.6 mph N/A   Mostly Cloudy
12:55 PM 62.6 °F 44.6 °F 52% 30.28 in 10.0 mi NNE 10.4 mph 18.4 mph N/A   Mostly Cloudy
1:15 PM 62.6 °F 44.6 °F 52% 30.29 in 10.0 mi NNE 10.4 mph 17.3 mph N/A   Partly Cloudy
1:35 PM 60.8 °F 44.6 °F 55% 30.29 in 10.0 mi NE 11.5 mph 17.3 mph N/A   Scattered Clouds
1:55 PM 60.8 °F 44.6 °F 55% 30.29 in 10.0 mi NNE 11.5 mph 19.6 mph N/A   Mostly Cloudy
2:15 PM 62.6 °F 44.6 °F 52% 30.29 in 10.0 mi NE 13.8 mph 21.9 mph N/A   Scattered Clouds
2:35 PM 60.8 °F 46.4 °F 59% 30.29 in 10.0 mi NNE 10.4 mph 20.7 mph N/A   Mostly Cloudy
2:55 PM 60.8 °F 46.4 °F 59% 30.28 in 10.0 mi NE 10.4 mph 19.6 mph N/A   Mostly Cloudy
3:35 PM 60.8 °F 46.4 °F 59% 30.29 in 10.0 mi NE 9.2 mph 20.7 mph N/A   Mostly Cloudy
3:55 PM 60.8 °F 46.4 °F 59% 30.29 in 10.0 mi NE 9.2 mph 18.4 mph N/A   Overcast
4:15 PM 62.6 °F 44.6 °F 52% 30.29 in 10.0 mi NE 9.2 mph 19.6 mph N/A   Unknown
4:35 PM 60.8 °F 44.6 °F 55% 30.29 in 10.0 mi NE 9.2 mph 18.4 mph N/A   Unknown
4:55 PM 59.0 °F 44.6 °F 59% 30.29 in 10.0 mi NE 8.1 mph 18.4 mph N/A   Mostly Cloudy
5:15 PM 59.0 °F 44.6 °F 59% 30.30 in 10.0 mi NE 8.1 mph 13.8 mph N/A   Scattered Clouds
5:35 PM 59.0 °F 44.6 °F 59% 30.31 in 10.0 mi NNE 9.2 mph - N/A   Scattered Clouds
5:55 PM 59.0 °F 44.6 °F 59% 30.31 in 10.0 mi NNE 8.1 mph 18.4 mph N/A   Mostly Cloudy
6:15 PM 59.0 °F 46.4 °F 63% 30.30 in 10.0 mi NE 8.1 mph 17.3 mph N/A   Overcast
6:35 PM 59.0 °F 44.6 °F 59% 30.30 in 10.0 mi NE 6.9 mph 13.8 mph N/A   Mostly Cloudy
6:55 PM 57.2 °F 42.8 °F 59% 30.31 in 10.0 mi NE 9.2 mph - N/A   Mostly Cloudy
7:15 PM 57.2 °F 42.8 °F 59% 30.31 in 10.0 mi Variable 5.8 mph 13.8 mph N/A   Scattered Clouds
7:35 PM 57.2 °F 44.6 °F 63% 30.31 in 10.0 mi Variable 6.9 mph - N/A   Partly Cloudy
7:55 PM 57.2 °F 44.6 °F 63% 30.31 in 10.0 mi NE 9.2 mph - N/A   Clear
8:15 PM 57.2 °F 44.6 °F 63% 30.32 in 10.0 mi NE 9.2 mph - N/A   Clear
8:35 PM 57.2 °F 44.6 °F 63% 30.32 in 10.0 mi NE 10.4 mph 17.3 mph N/A   Clear
8:55 PM 57.2 °F 44.6 °F 63% 30.32 in 10.0 mi NE 10.4 mph - N/A   Clear
9:15 PM 57.2 °F 44.6 °F 63% 30.33 in 10.0 mi NE 8.1 mph - N/A   Clear
9:35 PM 57.2 °F 46.4 °F 67% 30.32 in 10.0 mi NE 10.4 mph 17.3 mph N/A   Clear
9:55 PM 57.2 °F 46.4 °F 67% 30.33 in 10.0 mi ENE 12.7 mph - N/A   Clear
10:15 PM 57.2 °F 46.4 °F 67% 30.33 in 10.0 mi NE 8.1 mph 17.3 mph N/A   Clear
10:35 PM 57.2 °F 46.4 °F 67% 30.33 in 10.0 mi NE 10.4 mph - N/A   Clear
10:55 PM 57.2 °F 46.4 °F 67% 30.33 in 10.0 mi NE 8.1 mph 16.1 mph N/A   Partly Cloudy
11:15 PM 57.2 °F 46.4 °F 67% 30.33 in 10.0 mi NE 11.5 mph - N/A   Partly Cloudy
11:35 PM 57.2 °F 46.4 °F 67% 30.32 in 10.0 mi NE 9.2 mph 18.4 mph N/A   Partly Cloudy
11:55 PM 57.2 °F 44.6 °F 63% 30.33 in 10.0 mi NE 11.5 mph 20.7 mph N/A   Clear